,,PA_Meas_PMT16A,,PR_Meas_QMR101_102,,RH_Meas_QMH101,,SR_Meas_QMS101,,TA_Meas_QMH101,,GenWind,,GenWind,
time,status,PA,status,PR,status,RH,status,SR,status,TA,status,DirAvg,status,SpdAvg,
2013-10-05, 06:21:04,VALID,918.437,VALID,0,VALID,95.1326,VALID,25.1412,VALID,18.8254,VALID,14,VALID,0,
2013-10-05, 06:22:04,VALID,918.418,VALID,0,VALID,95.0259,VALID,28.0421,VALID,18.8254,VALID,14,VALID,0,
2013-10-05, 06:23:04,VALID,918.409,VALID,0,VALID,95.003,VALID,31.0505,VALID,18.8254,VALID,14,VALID,0,
2013-10-05, 06:24:04,VALID,918.392,VALID,0,VALID,94.9039,VALID,34.1663,VALID,18.8449,VALID,14,VALID,0,
2013-10-05, 06:25:04,VALID,918.423,VALID,0,VALID,94.881,VALID,37.1746,VALID,18.8449,VALID,14,VALID,0,
2013-10-05, 06:26:04,VALID,918.451,VALID,0,VALID,94.8353,VALID,39.6458,VALID,18.8449,VALID,15,VALID,0,
2013-10-05, 06:27:04,VALID,918.456,VALID,0,VALID,94.8429,VALID,41.6872,VALID,18.8449,VALID,15,VALID,0,
2013-10-05, 06:28:04,VALID,918.461,VALID,0,VALID,94.82,VALID,43.5137,VALID,18.8449,VALID,14,VALID,0,
2013-10-05, 06:29:04,VALID,918.493,VALID,0,VALID,94.7286,VALID,45.3402,VALID,18.8839,VALID,14,VALID,0,
2013-10-05, 06:30:04,VALID,918.484,VALID,0,VALID,94.6142,VALID,47.0592,VALID,18.8449,VALID,14,VALID,0,
2013-10-05, 06:31:04,VALID,918.49,VALID,0,VALID,94.5456,VALID,48.9932,VALID,18.8434,VALID,14,VALID,0,
2013-10-05, 06:32:04,VALID,918.524,VALID,0,VALID,94.5456,VALID,51.6792,VALID,18.9034,VALID,14,VALID,0,
2013-10-05, 06:33:04,VALID,918.573,VALID,0,VALID,94.5227,VALID,54.6875,VALID,18.9214,VALID,14,VALID,0,
2013-10-05, 06:34:04,VALID,918.569,VALID,0,VALID,94.3474,VALID,58.1257,VALID,18.9424,VALID,15,VALID,0,
2013-10-05, 06:35:04,VALID,918.586,VALID,0,VALID,94.0348,VALID,61.3489,VALID,18.9229,VALID,14,VALID,0,
2013-10-05, 06:36:04,VALID,918.601,VALID,0,VALID,93.7909,VALID,64.1424,VALID,18.9438,VALID,14,VALID,0,
2013-10-05, 06:37:04,VALID,918.599,VALID,0,VALID,93.6537,VALID,67.2582,VALID,18.9633,VALID,14,VALID,0,
2013-10-05, 06:38:04,VALID,918.603,VALID,0,VALID,93.4555,VALID,70.5888,VALID,19.0218,VALID,14,VALID,0,
2013-10-05, 06:39:04,VALID,918.621,VALID,0,VALID,93.2954,VALID,73.5972,VALID,19.0413,VALID,5,VALID,0,
2013-10-05, 06:40:04,VALID,918.643,VALID,0,VALID,93.0285,VALID,75.9609,VALID,19.0803,VALID,357,VALID,0,
2013-10-05, 06:41:04,VALID,918.68,VALID,0,VALID,92.7998,VALID,78.1097,VALID,19.1388,VALID,357,VALID,0,
2013-10-05, 06:42:04,VALID,918.693,VALID,0,VALID,92.6626,VALID,80.366,VALID,19.1583,VALID,357,VALID,0,
2013-10-05, 06:43:04,VALID,918.692,VALID,0,VALID,92.7465,VALID,81.9776,VALID,19.2363,VALID,357,VALID,0,
2013-10-05, 06:44:04,VALID,918.707,VALID,0,VALID,92.6245,VALID,83.1595,VALID,19.2948,VALID,357,VALID,0,
2013-10-05, 06:45:04,VALID,918.752,VALID,0,VALID,92.3882,VALID,84.8785,VALID,19.3143,VALID,357,VALID,0,
2013-10-05, 06:46:04,VALID,918.734,VALID,0,VALID,92.2738,VALID,86.9199,VALID,19.3533,VALID,357,VALID,0,
2013-10-05, 06:47:04,VALID,918.772,VALID,0,VALID,91.6945,VALID,89.8208,VALID,19.3533,VALID,357,VALID,0,
2013-10-05, 06:48:04,VALID,918.777,VALID,0,VALID,91.1227,VALID,91.8622,VALID,19.3728,VALID,357,VALID,0,
2013-10-05, 06:49:04,VALID,918.818,VALID,0,VALID,90.5586,VALID,94.1184,VALID,19.3923,VALID,355,VALID,0,
2013-10-05, 06:50:04,VALID,918.794,VALID,0,VALID,90.5814,VALID,96.3747,VALID,19.4313,VALID,355,VALID,0,
2013-10-05, 06:51:04,VALID,918.826,VALID,0,VALID,90.9626,VALID,97.8789,VALID,19.4688,VALID,355,VALID,0,
2013-10-05, 06:52:04,VALID,918.866,VALID,0,VALID,90.8483,VALID,99.0607,VALID,19.4883,VALID,355,VALID,0,
2013-10-05, 06:53:04,VALID,918.874,VALID,0,VALID,90.7187,VALID,100.35,VALID,19.5078,VALID,355,VALID,0,
2013-10-05, 06:54:04,VALID,918.894,VALID,0,VALID,90.5357,VALID,101.747,VALID,19.5078,VALID,355,VALID,0,
2013-10-05, 06:55:04,VALID,918.894,VALID,0,VALID,90.3832,VALID,103.573,VALID,19.5273,VALID,355,VALID,0,
2013-10-05, 06:56:04,VALID,918.89,VALID,0,VALID,90.3451,VALID,106.259,VALID,19.5453,VALID,355,VALID,0,
2013-10-05, 06:57:04,VALID,918.938,VALID,0,VALID,90.5586,VALID,110.879,VALID,19.5858,VALID,355,VALID,0,
2013-10-05, 06:58:04,VALID,918.974,VALID,0,VALID,90.8483,VALID,116.466,VALID,19.6053,VALID,355,VALID,0,
2013-10-05, 06:59:04,VALID,918.997,VALID,0,VALID,91.0465,VALID,116.144,VALID,19.6248,VALID,355,VALID,0,
2013-10-05, 07:00:04,VALID,919.011,VALID,0,VALID,91.4276,VALID,118.508,VALID,19.6248,VALID,360,VALID,0,
2013-10-05, 07:01:04,VALID,919.005,VALID,0,VALID,91.2523,VALID,119.26,VALID,19.6443,VALID,14,VALID,0,
2013-10-05, 07:02:04,VALID,919.019,VALID,0,VALID,91.3361,VALID,119.26,VALID,19.6833,VALID,14,VALID,0,
2013-10-05, 07:03:04,VALID,919.007,VALID,0,VALID,91.603,VALID,118.722,VALID,19.7418,VALID,14,VALID,0,
2013-10-05, 07:04:04,VALID,919.001,VALID,0,VALID,91.1837,VALID,117.97,VALID,19.7613,VALID,38,VALID,0,
2013-10-05, 07:05:04,VALID,918.986,VALID,0,VALID,90.8254,VALID,118.293,VALID,19.8393,VALID,35,VALID,0,
2013-10-05, 07:06:04,VALID,919.002,VALID,0,VALID,90.2231,VALID,120.012,VALID,19.8603,VALID,44,VALID,0,
2013-10-05, 07:07:04,VALID,919.006,VALID,0,VALID,90.1012,VALID,119.689,VALID,19.8993,VALID,44,VALID,0,
2013-10-05, 07:08:04,VALID,918.986,VALID,0,VALID,89.9334,VALID,126.351,VALID,19.9173,VALID,44,VALID,0,
2013-10-05, 07:09:04,VALID,918.989,VALID,0,VALID,89.4837,VALID,174.162,VALID,19.9383,VALID,44,VALID,0,
2013-10-05, 07:10:04,VALID,919.005,VALID,0,VALID,89.3007,VALID,145.905,VALID,19.9953,VALID,44,VALID,0,
2013-10-05, 07:11:04,VALID,919.003,VALID,0,VALID,87.0061,VALID,154.608,VALID,20.0553,VALID,44,VALID,0,
2013-10-05, 07:12:04,VALID,919.01,VALID,0,VALID,87.4253,VALID,213.056,VALID,20.1334,VALID,44,VALID,0,
2013-10-05, 07:13:04,VALID,919.008,VALID,0,VALID,86.5944,VALID,195.221,VALID,20.2293,VALID,44,VALID,0,
2013-10-05, 07:14:04,VALID,919.007,VALID,0,VALID,83.7966,VALID,186.088,VALID,20.3269,VALID,32,VALID,0,
2013-10-05, 07:15:04,VALID,919.006,VALID,0,VALID,84.254,VALID,162.881,VALID,20.4845,VALID,30,VALID,0,
2013-10-05, 07:16:04,VALID,918.979,VALID,0,VALID,84.8867,VALID,182.65,VALID,20.6015,VALID,29,VALID,0,
2013-10-05, 07:17:04,VALID,919.034,VALID,0,VALID,85.6262,VALID,187.485,VALID,20.6975,VALID,29,VALID,0,
2013-10-05, 07:18:04,VALID,919.055,VALID,0,VALID,83.9033,VALID,176.311,VALID,20.834,VALID,20,VALID,0,
2013-10-05, 07:19:04,VALID,919.11,VALID,0,VALID,84.5056,VALID,178.245,VALID,20.9511,VALID,20,VALID,0,
2013-10-05, 07:20:04,VALID,919.125,VALID,0,VALID,82.5845,VALID,169.005,VALID,21.0291,VALID,20,VALID,0,
2013-10-05, 07:21:04,VALID,919.113,VALID,0,VALID,83.7813,VALID,164.385,VALID,21.0096,VALID,20,VALID,0,
2013-10-05, 07:22:04,VALID,919.145,VALID,0,VALID,84.5894,VALID,161.269,VALID,21.0486,VALID,19,VALID,0,
2013-10-05, 07:23:04,VALID,919.146,VALID,0,VALID,83.7585,VALID,159.55,VALID,21.0096,VALID,19,VALID,0,
2013-10-05, 07:24:04,VALID,919.123,VALID,0,VALID,84.0939,VALID,158.153,VALID,20.9901,VALID,2,VALID,0,
2013-10-05, 07:25:04,VALID,919.169,VALID,0,VALID,85.6643,VALID,157.294,VALID,21.008,VALID,2,VALID,0,
2013-10-05, 07:26:04,VALID,919.172,VALID,0,VALID,84.5437,VALID,157.616,VALID,21.0096,VALID,2,VALID,0,
2013-10-05, 07:27:04,VALID,919.18,VALID,0,VALID,84.4522,VALID,159.98,VALID,21.0291,VALID,2,VALID,0,
2013-10-05, 07:28:04,VALID,919.201,VALID,0,VALID,85.3518,VALID,165.782,VALID,21.086,VALID,2,VALID,0,
2013-10-05, 07:29:04,VALID,919.208,VALID,0,VALID,85.5805,VALID,168.897,VALID,21.1657,VALID,2,VALID,0,
2013-10-05, 07:30:04,VALID,919.27,VALID,0,VALID,84.3988,VALID,174.484,VALID,21.2437,VALID,2,VALID,0,
2013-10-05, 07:31:04,VALID,919.245,VALID,0,VALID,82.7064,VALID,180.394,VALID,21.2437,VALID,26,VALID,0,
2013-10-05, 07:32:04,VALID,919.272,VALID,0,VALID,84.6885,VALID,184.262,VALID,21.2242,VALID,29,VALID,0,
2013-10-05, 07:33:04,VALID,919.27,VALID,0,VALID,83.5145,VALID,187.485,VALID,21.1836,VALID,36,VALID,0,
2013-10-05, 07:34:04,VALID,919.302,VALID,0,VALID,84.1473,VALID,190.493,VALID,21.1657,VALID,36,VALID,0,
2013-10-05, 07:35:04,VALID,919.286,VALID,0,VALID,85.6872,VALID,192.212,VALID,21.164,VALID,36,VALID,0,
2013-10-05, 07:36:04,VALID,919.336,VALID,0,VALID,85.0163,VALID,192.105,VALID,21.2242,VALID,36,VALID,0,
2013-10-05, 07:37:04,VALID,919.322,VALID,0,VALID,85.3136,VALID,190.493,VALID,21.2632,VALID,36,VALID,0,
2013-10-05, 07:38:04,VALID,919.343,VALID,0,VALID,84.2769,VALID,188.452,VALID,21.3217,VALID,36,VALID,0,
2013-10-05, 07:39:04,VALID,919.328,VALID,0,VALID,83.6365,VALID,186.733,VALID,21.4193,VALID,36,VALID,0,
2013-10-05, 07:40:04,VALID,919.317,VALID,0,VALID,84.132,VALID,185.443,VALID,21.5542,VALID,36,VALID,0,
2013-10-05, 07:41:04,VALID,919.332,VALID,0,VALID,82.7522,VALID,185.766,VALID,21.6534,VALID,36,VALID,0,
2013-10-05, 07:42:04,VALID,919.365,VALID,0,VALID,81.258,VALID,187.592,VALID,21.6729,VALID,36,VALID,0,
2013-10-05, 07:43:04,VALID,919.4,VALID,0,VALID,81.2427,VALID,191.03,VALID,21.6534,VALID,36,VALID,0,
2013-10-05, 07:44:04,VALID,919.432,VALID,0,VALID,79.6266,VALID,190.923,VALID,21.5949,VALID,36,VALID,0,
2013-10-05, 07:45:04,VALID,919.47,VALID,0,VALID,79.6113,VALID,194.254,VALID,21.5559,VALID,37,VALID,0,
2013-10-05, 07:46:04,VALID,919.474,VALID,0,VALID,80.7091,VALID,200.378,VALID,21.5542,VALID,36,VALID,0,
2013-10-05, 07:47:04,VALID,919.555,VALID,0,VALID,80.4957,VALID,211.659,VALID,21.5754,VALID,37,VALID,0,
2013-10-05, 07:48:04,VALID,919.533,VALID,0,VALID,79.1768,VALID,217.998,VALID,21.5949,VALID,36,VALID,0,
2013-10-05, 07:49:04,VALID,919.58,VALID,0,VALID,81.3419,VALID,228.527,VALID,21.5949,VALID,60,VALID,0,
2013-10-05, 07:50:04,VALID,919.607,VALID,0,VALID,80.854,VALID,253.991,VALID,21.6144,VALID,68,VALID,0,
2013-10-05, 07:51:04,VALID,919.606,VALID,0,VALID,79.3521,VALID,264.735,VALID,21.6729,VALID,69,VALID,0,
2013-10-05, 07:52:04,VALID,919.628,VALID,0,VALID,80.8616,VALID,257.429,VALID,21.8095,VALID,60,VALID,0,
2013-10-05, 07:53:04,VALID,919.652,VALID,0,VALID,80.2365,VALID,254.958,VALID,21.8876,VALID,43,VALID,0,
2013-10-05, 07:54:04,VALID,919.652,VALID,0,VALID,78.5136,VALID,273.545,VALID,21.8859,VALID,72,VALID,0,
2013-10-05, 07:55:04,VALID,919.672,VALID,0,VALID,79.7028,VALID,321.464,VALID,21.9835,VALID,72,VALID,0,
2013-10-05, 07:56:04,VALID,919.678,VALID,0,VALID,76.8364,VALID,367.879,VALID,22.0827,VALID,44,VALID,0,
2013-10-05, 07:57:04,VALID,919.702,VALID,0,VALID,74.4655,VALID,342.522,VALID,22.1591,VALID,44,VALID,0,
2013-10-05, 07:58:04,VALID,919.691,VALID,0,VALID,74.7705,VALID,333.175,VALID,22.2957,VALID,44,VALID,0,
2013-10-05, 07:59:04,VALID,919.693,VALID,0,VALID,74.6485,VALID,246.363,VALID,22.434,VALID,282,VALID,0,
2013-10-05, 08:00:04,VALID,919.688,VALID,0,VALID,75.3727,VALID,248.511,VALID,22.5103,VALID,17,VALID,0,
2013-10-05, 08:01:04,VALID,919.688,VALID,0,VALID,72.1709,VALID,250.875,VALID,22.4713,VALID,17,VALID,0,
2013-10-05, 08:02:04,VALID,919.69,VALID,0,VALID,73.8861,VALID,252.164,VALID,22.4323,VALID,17,VALID,0,
2013-10-05, 08:03:04,VALID,919.715,VALID,0,VALID,75.3422,VALID,256.784,VALID,22.4891,VALID,17,VALID,0,
2013-10-05, 08:04:04,VALID,919.708,VALID,0,VALID,76.1274,VALID,264.305,VALID,22.5477,VALID,17,VALID,0,
2013-10-05, 08:05:04,VALID,919.737,VALID,0,VALID,74.3893,VALID,276.446,VALID,22.686,VALID,17,VALID,0,
2013-10-05, 08:06:04,VALID,919.738,VALID,0,VALID,74.3588,VALID,275.909,VALID,22.7836,VALID,17,VALID,0,
2013-10-05, 08:07:04,VALID,919.751,VALID,0,VALID,75.1288,VALID,279.884,VALID,22.8243,VALID,17,VALID,0,
2013-10-05, 08:08:04,VALID,919.781,VALID,0,VALID,77.5301,VALID,311.579,VALID,22.8226,VALID,17,VALID,0,
2013-10-05, 08:09:04,VALID,919.75,VALID,0,VALID,75.5862,VALID,289.232,VALID,22.8812,VALID,17,VALID,0,
2013-10-05, 08:10:04,VALID,919.741,VALID,0,VALID,76.8821,VALID,297.505,VALID,22.9007,VALID,33,VALID,0,
2013-10-05, 08:11:04,VALID,919.739,VALID,0,VALID,77.0041,VALID,300.405,VALID,22.9202,VALID,26,VALID,0,
2013-10-05, 08:12:04,VALID,919.711,VALID,0,VALID,73.848,VALID,275.801,VALID,22.9007,VALID,7,VALID,0,
2013-10-05, 08:13:04,VALID,919.737,VALID,0,VALID,73.3144,VALID,256.999,VALID,22.7836,VALID,26,VALID,0,
2013-10-05, 08:14:04,VALID,919.784,VALID,0,VALID,73.3906,VALID,250.338,VALID,22.6257,VALID,29,VALID,0,
2013-10-05, 08:15:04,VALID,919.797,VALID,0,VALID,75.4871,VALID,247.115,VALID,22.5672,VALID,18,VALID,0,
2013-10-05, 08:16:04,VALID,919.786,VALID,0,VALID,75.083,VALID,242.28,VALID,22.5867,VALID,25,VALID,0,
2013-10-05, 08:17:04,VALID,919.8,VALID,0,VALID,75.3422,VALID,238.412,VALID,22.686,VALID,49,VALID,0,
2013-10-05, 08:18:04,VALID,919.795,VALID,0,VALID,74.8619,VALID,235.618,VALID,22.7038,VALID,48,VALID,0,
2013-10-05, 08:19:04,VALID,919.751,VALID,0,VALID,75.5252,VALID,234.974,VALID,22.7233,VALID,40,VALID,0,
2013-10-05, 08:20:04,VALID,919.769,VALID,0,VALID,74.5951,VALID,234.222,VALID,22.7641,VALID,25,VALID,0,
2013-10-05, 08:21:04,VALID,919.796,VALID,0,VALID,73.5126,VALID,234.544,VALID,22.6665,VALID,28,VALID,0,
2013-10-05, 08:22:04,VALID,919.822,VALID,0,VALID,73.505,VALID,235.833,VALID,22.6079,VALID,17,VALID,0,
2013-10-05, 08:23:04,VALID,919.817,VALID,0,VALID,76.1808,VALID,237.015,VALID,22.4891,VALID,11,VALID,0,
2013-10-05, 08:24:04,VALID,919.809,VALID,0,VALID,76.4095,VALID,238.627,VALID,22.4891,VALID,2,VALID,0,
2013-10-05, 08:25:04,VALID,919.816,VALID,0,VALID,76.9889,VALID,240.024,VALID,22.5494,VALID,359,VALID,0,
2013-10-05, 08:26:04,VALID,919.817,VALID,0,VALID,75.4566,VALID,240.991,VALID,22.5086,VALID,10,VALID,0,
2013-10-05, 08:27:04,VALID,919.804,VALID,0,VALID,75.7615,VALID,241.743,VALID,22.4128,VALID,31,VALID,0,
2013-10-05, 08:28:04,VALID,919.807,VALID,0,VALID,72.4377,VALID,243.354,VALID,22.2745,VALID,23,VALID,0,
2013-10-05, 08:29:04,VALID,919.815,VALID,0,VALID,74.0386,VALID,246.792,VALID,22.2176,VALID,354,VALID,0,
2013-10-05, 08:30:04,VALID,919.86,VALID,0,VALID,74.6942,VALID,251.735,VALID,22.1769,VALID,30,VALID,0,
2013-10-05, 08:31:04,VALID,919.869,VALID,0,VALID,75.1288,VALID,257.536,VALID,22.1981,VALID,17,VALID,0,
2013-10-05, 08:32:04,VALID,919.861,VALID,0,VALID,74.3664,VALID,262.049,VALID,22.1964,VALID,36,VALID,0,
2013-10-05, 08:33:04,VALID,919.874,VALID,0,VALID,75.8835,VALID,266.024,VALID,22.1769,VALID,34,VALID,0,
2013-10-05, 08:34:04,VALID,919.893,VALID,0,VALID,76.5543,VALID,268.818,VALID,22.255,VALID,39,VALID,0,
2013-10-05, 08:35:04,VALID,919.894,VALID,0,VALID,75.6548,VALID,270.859,VALID,22.4128,VALID,4,VALID,0,
2013-10-05, 08:36:04,VALID,919.882,VALID,0,VALID,70.6005,VALID,272.578,VALID,22.3703,VALID,11,VALID,0,
2013-10-05, 08:37:04,VALID,919.912,VALID,0,VALID,72.8036,VALID,271.074,VALID,22.4501,VALID,8,VALID,0,
2013-10-05, 08:38:04,VALID,919.912,VALID,0,VALID,74.3054,VALID,262.371,VALID,22.5672,VALID,24,VALID,0,
2013-10-05, 08:39:04,VALID,919.939,VALID,0,VALID,74.3664,VALID,254.098,VALID,22.6647,VALID,13,VALID,0,
2013-10-05, 08:40:04,VALID,919.942,VALID,0,VALID,73.0095,VALID,248.726,VALID,22.7641,VALID,357,VALID,0,
2013-10-05, 08:41:04,VALID,919.964,VALID,0,VALID,69.8915,VALID,244.858,VALID,22.7818,VALID,8,VALID,0,
2013-10-05, 08:42:04,VALID,919.976,VALID,0,VALID,70.6081,VALID,243.032,VALID,22.8014,VALID,353,VALID,0,
2013-10-05, 08:43:04,VALID,919.987,VALID,0,VALID,69.213,VALID,243.462,VALID,22.8209,VALID,354,VALID,0,
2013-10-05, 08:44:04,VALID,920.011,VALID,0,VALID,69.9296,VALID,245.503,VALID,22.8191,VALID,4,VALID,0,
2013-10-05, 08:45:04,VALID,919.99,VALID,0,VALID,71.6601,VALID,246.792,VALID,22.8794,VALID,4,VALID,0,
2013-10-05, 08:46:04,VALID,919.996,VALID,0,VALID,71.7516,VALID,246.9,VALID,22.938,VALID,31,VALID,0,
2013-10-05, 08:47:04,VALID,920.028,VALID,0,VALID,70.3641,VALID,245.718,VALID,22.9575,VALID,35,VALID,0,
2013-10-05, 08:48:04,VALID,920.059,VALID,0,VALID,71.1875,VALID,243.677,VALID,22.8387,VALID,35,VALID,0,
2013-10-05, 08:49:04,VALID,920.044,VALID,0,VALID,71.805,VALID,241.528,VALID,22.7623,VALID,35,VALID,0,
2013-10-05, 08:50:04,VALID,920.078,VALID,0,VALID,73.9853,VALID,241.85,VALID,22.7428,VALID,35,VALID,0,
2013-10-05, 08:51:04,VALID,920.068,VALID,0,VALID,72.5216,VALID,244.644,VALID,22.7818,VALID,35,VALID,0,
2013-10-05, 08:52:04,VALID,920.082,VALID,0,VALID,70.8978,VALID,250.66,VALID,22.7606,VALID,6,VALID,0,
2013-10-05, 08:53:04,VALID,920.067,VALID,0,VALID,73.5736,VALID,258.611,VALID,22.8387,VALID,7,VALID,0,
2013-10-05, 08:54:04,VALID,920.093,VALID,0,VALID,72.2242,VALID,268.388,VALID,22.8777,VALID,50,VALID,0,
2013-10-05, 08:55:04,VALID,920.076,VALID,0,VALID,73.7261,VALID,278.487,VALID,22.9965,VALID,16,VALID,0,
2013-10-05, 08:56:04,VALID,920.115,VALID,0,VALID,70.0058,VALID,294.604,VALID,23.0143,VALID,4,VALID,0,
2013-10-05, 08:57:04,VALID,920.128,VALID,0,VALID,70.0135,VALID,309.645,VALID,22.9948,VALID,1,VALID,0,
2013-10-05, 08:58:04,VALID,920.117,VALID,0,VALID,72.3843,VALID,311.15,VALID,23.0551,VALID,1,VALID,0,
2013-10-05, 08:59:04,VALID,920.161,VALID,0,VALID,70.2955,VALID,304.058,VALID,23.1349,VALID,354,VALID,0,
2013-10-05, 09:00:04,VALID,920.161,VALID,0,VALID,69.0072,VALID,295.463,VALID,23.1722,VALID,353,VALID,0,
2013-10-05, 09:01:04,VALID,920.162,VALID,0,VALID,68.5574,VALID,290.199,VALID,23.1917,VALID,3,VALID,0,
2013-10-05, 09:02:04,VALID,920.154,VALID,0,VALID,69.4112,VALID,284.074,VALID,23.1917,VALID,7,VALID,0,
2013-10-05, 09:03:04,VALID,920.149,VALID,0,VALID,70.8825,VALID,277.95,VALID,23.2325,VALID,23,VALID,0,
2013-10-05, 09:04:04,VALID,920.164,VALID,0,VALID,69.9906,VALID,274.942,VALID,23.2502,VALID,359,VALID,0,
2013-10-05, 09:05:04,VALID,920.172,VALID,0,VALID,69.152,VALID,275.049,VALID,23.2893,VALID,350,VALID,0,
2013-10-05, 09:06:04,VALID,920.189,VALID,0,VALID,70.1888,VALID,278.38,VALID,23.3869,VALID,2,VALID,0,
2013-10-05, 09:07:04,VALID,920.148,VALID,0,VALID,69.4646,VALID,284.504,VALID,23.4259,VALID,37,VALID,0,
2013-10-05, 09:08:04,VALID,920.165,VALID,0,VALID,69.3883,VALID,289.446,VALID,23.3869,VALID,17,VALID,0,
2013-10-05, 09:09:04,VALID,920.127,VALID,0,VALID,69.3807,VALID,292.24,VALID,23.2502,VALID,40,VALID,0,
2013-10-05, 09:10:04,VALID,920.136,VALID,0,VALID,71.5686,VALID,292.24,VALID,23.1136,VALID,26,VALID,0,
2013-10-05, 09:11:04,VALID,920.137,VALID,0,VALID,70.8292,VALID,288.157,VALID,23.0941,VALID,356,VALID,0,
2013-10-05, 09:12:04,VALID,920.163,VALID,0,VALID,70.6538,VALID,281.818,VALID,23.1331,VALID,4,VALID,0,
2013-10-05, 09:13:04,VALID,920.179,VALID,0,VALID,69.4493,VALID,275.264,VALID,23.2307,VALID,356,VALID,0,
2013-10-05, 09:14:04,VALID,920.173,VALID,0,VALID,69.9448,VALID,270.537,VALID,23.3869,VALID,356,VALID,0,
2013-10-05, 09:15:04,VALID,920.139,VALID,0,VALID,71.3704,VALID,267.206,VALID,23.465,VALID,53,VALID,0,
2013-10-05, 09:16:04,VALID,920.158,VALID,0,VALID,72.8646,VALID,265.487,VALID,23.3283,VALID,62,VALID,0,
2013-10-05, 09:17:04,VALID,920.147,VALID,0,VALID,71.9574,VALID,263.875,VALID,23.2307,VALID,41,VALID,0,
2013-10-05, 09:18:04,VALID,920.16,VALID,0,VALID,70.326,VALID,260.975,VALID,23.252,VALID,35,VALID,0,
2013-10-05, 09:19:04,VALID,920.141,VALID,0,VALID,71.7363,VALID,257.751,VALID,23.1917,VALID,11,VALID,0,
2013-10-05, 09:20:04,VALID,920.166,VALID,0,VALID,71.5534,VALID,253.991,VALID,23.1917,VALID,355,VALID,0,
2013-10-05, 09:21:04,VALID,920.157,VALID,0,VALID,70.6843,VALID,250.553,VALID,23.2325,VALID,342,VALID,0,
2013-10-05, 09:22:04,VALID,920.151,VALID,0,VALID,72.2929,VALID,248.189,VALID,23.2307,VALID,50,VALID,0,
2013-10-05, 09:23:04,VALID,920.173,VALID,0,VALID,71.744,VALID,247.007,VALID,23.1527,VALID,2,VALID,0,
2013-10-05, 09:24:04,VALID,920.129,VALID,0,VALID,72.4148,VALID,246.685,VALID,23.1917,VALID,351,VALID,0,
2013-10-05, 09:25:04,VALID,920.166,VALID,0,VALID,72.4682,VALID,246.9,VALID,23.1722,VALID,13,VALID,0,
2013-10-05, 09:26:04,VALID,920.178,VALID,0,VALID,71.7745,VALID,247.544,VALID,23.2112,VALID,9,VALID,0,
2013-10-05, 09:27:04,VALID,920.132,VALID,0,VALID,71.2484,VALID,248.082,VALID,23.1917,VALID,348,VALID,0,
2013-10-05, 09:28:04,VALID,920.163,VALID,0,VALID,72.0565,VALID,248.404,VALID,23.1917,VALID,349,VALID,0,
2013-10-05, 09:29:04,VALID,920.139,VALID,0,VALID,71.622,VALID,248.619,VALID,23.2112,VALID,349,VALID,0,
2013-10-05, 09:30:04,VALID,920.116,VALID,0,VALID,72.392,VALID,248.619,VALID,23.2893,VALID,349,VALID,0,
2013-10-05, 09:31:04,VALID,920.117,VALID,0,VALID,73.4059,VALID,248.619,VALID,23.2893,VALID,18,VALID,0,
2013-10-05, 09:32:04,VALID,920.123,VALID,0,VALID,72.5597,VALID,248.941,VALID,23.3283,VALID,39,VALID,0,
2013-10-05, 09:33:04,VALID,920.112,VALID,0,VALID,72.0489,VALID,249.586,VALID,23.3478,VALID,21,VALID,0,
2013-10-05, 09:34:04,VALID,920.091,VALID,0,VALID,71.4162,VALID,250.338,VALID,23.3283,VALID,22,VALID,0,
2013-10-05, 09:35:04,VALID,920.166,VALID,0,VALID,71.6296,VALID,251.412,VALID,23.3478,VALID,25,VALID,0,
2013-10-05, 09:36:04,VALID,920.138,VALID,0,VALID,71.0045,VALID,253.131,VALID,23.4259,VALID,25,VALID,0,
2013-10-05, 09:37:04,VALID,920.139,VALID,0,VALID,71.6525,VALID,255.817,VALID,23.5235,VALID,25,VALID,0,
2013-10-05, 09:38:04,VALID,920.107,VALID,0,VALID,72.9713,VALID,259.041,VALID,23.6211,VALID,24,VALID,0,
2013-10-05, 09:39:04,VALID,920.151,VALID,0,VALID,72.857,VALID,263.016,VALID,23.6602,VALID,359,VALID,0,
2013-10-05, 09:40:04,VALID,920.147,VALID,0,VALID,73.4059,VALID,267.636,VALID,23.7187,VALID,337,VALID,0,
2013-10-05, 09:41:04,VALID,920.155,VALID,0,VALID,71.5686,VALID,273.115,VALID,23.6602,VALID,344,VALID,0,
2013-10-05, 09:42:04,VALID,920.124,VALID,0,VALID,72.8417,VALID,279.24,VALID,23.6992,VALID,340,VALID,0,
2013-10-05, 09:43:04,VALID,920.132,VALID,0,VALID,74.9915,VALID,285.793,VALID,23.7968,VALID,345,VALID,0,
2013-10-05, 09:44:04,VALID,920.116,VALID,0,VALID,74.1072,VALID,292.67,VALID,23.8163,VALID,15,VALID,0,
2013-10-05, 09:45:04,VALID,920.126,VALID,0,VALID,74.9077,VALID,300.298,VALID,23.8358,VALID,14,VALID,0,
2013-10-05, 09:46:04,VALID,920.097,VALID,0,VALID,74.7095,VALID,308.893,VALID,23.9725,VALID,15,VALID,0,
2013-10-05, 09:47:04,VALID,920.089,VALID,0,VALID,74.5113,VALID,317.811,VALID,24.1092,VALID,15,VALID,0,
2013-10-05, 09:48:04,VALID,920.109,VALID,0,VALID,73.7032,VALID,326.729,VALID,24.1873,VALID,13,VALID,0,
2013-10-05, 09:49:04,VALID,920.122,VALID,0,VALID,71.8812,VALID,335.539,VALID,24.1659,VALID,8,VALID,0,
2013-10-05, 09:50:04,VALID,920.119,VALID,0,VALID,72.4911,VALID,344.779,VALID,24.1073,VALID,8,VALID,0,
2013-10-05, 09:51:04,VALID,920.106,VALID,0,VALID,72.0718,VALID,355.308,VALID,24.0097,VALID,8,VALID,0,
2013-10-05, 09:52:04,VALID,920.07,VALID,0,VALID,71.9422,VALID,367.234,VALID,24.1287,VALID,8,VALID,0,
2013-10-05, 09:53:04,VALID,920.068,VALID,0,VALID,69.8381,VALID,378.837,VALID,24.1287,VALID,320,VALID,0,
2013-10-05, 09:54:04,VALID,920.083,VALID,0,VALID,69.8991,VALID,387.325,VALID,24.1092,VALID,320,VALID,0,
2013-10-05, 09:55:04,VALID,920.079,VALID,0,VALID,70.4709,VALID,393.987,VALID,24.0896,VALID,320,VALID,0,
2013-10-05, 09:56:04,VALID,920.099,VALID,0,VALID,70.6919,VALID,398.929,VALID,24.0506,VALID,320,VALID,0,
2013-10-05, 09:57:04,VALID,920.094,VALID,0,VALID,72.2929,VALID,404.301,VALID,23.992,VALID,296,VALID,0,
2013-10-05, 09:58:04,VALID,920.072,VALID,0,VALID,70.2803,VALID,416.12,VALID,24.0878,VALID,296,VALID,0,
2013-10-05, 09:59:04,VALID,920.073,VALID,0,VALID,70.1507,VALID,439.864,VALID,24.1659,VALID,296,VALID,0,
2013-10-05, 10:00:04,VALID,920.05,VALID,0,VALID,66.7506,VALID,528.61,VALID,24.244,VALID,296,VALID,0,
2013-10-05, 10:01:04,VALID,920.034,VALID,0,VALID,68.2829,VALID,484.022,VALID,24.3221,VALID,7,VALID,0,
2013-10-05, 10:02:04,VALID,920.043,VALID,0,VALID,67.0556,VALID,494.981,VALID,24.3806,VALID,328,VALID,0,
2013-10-05, 10:03:04,VALID,920.021,VALID,0,VALID,67.6883,VALID,411.607,VALID,24.4978,VALID,266,VALID,0,
2013-10-05, 10:04:04,VALID,920.011,VALID,0,VALID,66.8726,VALID,377.871,VALID,24.5564,VALID,330,VALID,0,
2013-10-05, 10:05:04,VALID,920.009,VALID,0,VALID,64.6694,VALID,349.828,VALID,24.654,VALID,17,VALID,0,
2013-10-05, 10:06:04,VALID,920.005,VALID,0,VALID,65.691,VALID,326.729,VALID,24.8335,VALID,17,VALID,0,
2013-10-05, 10:07:04,VALID,920.007,VALID,0,VALID,65.4851,VALID,306.315,VALID,24.9097,VALID,2,VALID,0,
2013-10-05, 10:08:04,VALID,920.027,VALID,0,VALID,61.6963,VALID,294.174,VALID,24.8121,VALID,301,VALID,0,
2013-10-05, 10:09:04,VALID,920.016,VALID,0,VALID,64.3188,VALID,298.901,VALID,24.6559,VALID,300,VALID,0,